TimeCDT,TemperatureF,Dew PointF,Humidity,Sea Level PressureIn,VisibilityMPH,Wind Direction,Wind SpeedMPH,Gust SpeedMPH,PrecipitationIn,Events,Conditions,WindDirDegrees,DateUTC
12:58 AM,67.8,56.3,67,30.01,10.0,South,9.2,-,N/A,,Overcast,180,2013-10-31 05:58:00
1:58 AM,67.5,56.5,68,29.99,10.0,South,8.1,-,N/A,,Overcast,170,2013-10-31 06:58:00
2:05 AM,68.0,57.2,68,29.99,10.0,South,8.1,-,N/A,,Light Drizzle,170,2013-10-31 07:05:00
2:40 AM,66.2,59.0,78,29.98,10.0,South,9.2,-,N/A,,Scattered Clouds,180,2013-10-31 07:40:00
2:51 AM,66.2,59.0,78,29.98,10.0,South,6.9,-,N/A,,Light Drizzle,180,2013-10-31 07:51:00
2:58 AM,66.2,59.0,78,29.98,10.0,South,8.1,-,0.00,,Light Drizzle,170,2013-10-31 07:58:00
3:09 AM,66.2,59.0,78,29.97,10.0,South,6.9,-,N/A,,Mostly Cloudy,170,2013-10-31 08:09:00
3:58 AM,64.9,60.3,85,29.95,10.0,SSE,5.8,-,0.00,,Overcast,150,2013-10-31 08:58:00
3:59 AM,64.4,60.8,88,29.95,10.0,SSE,5.8,-,N/A,,Light Drizzle,150,2013-10-31 08:59:00
4:13 AM,64.4,60.8,88,29.95,10.0,SSE,5.8,-,N/A,,Mostly Cloudy,150,2013-10-31 09:13:00
4:18 AM,64.4,60.8,88,29.95,10.0,SSE,5.8,-,N/A,,Light Drizzle,150,2013-10-31 09:18:00
4:39 AM,64.4,60.8,88,29.93,10.0,SE,8.1,-,N/A,,Mostly Cloudy,140,2013-10-31 09:39:00
4:58 AM,64.0,61.5,91,29.93,10.0,SSE,5.8,-,0.00,,Mostly Cloudy,150,2013-10-31 09:58:00
5:06 AM,64.4,60.8,88,29.93,10.0,South,8.1,-,N/A,,Light Drizzle,170,2013-10-31 10:06:00
5:17 AM,64.4,62.6,94,29.93,10.0,South,6.9,-,N/A,,Light Drizzle,180,2013-10-31 10:17:00
5:20 AM,64.4,62.6,94,29.93,10.0,South,11.5,-,N/A,,Light Drizzle,180,2013-10-31 10:20:00
5:41 AM,64.4,62.6,94,29.92,10.0,South,16.1,23.0,N/A,,Overcast,190,2013-10-31 10:41:00
5:58 AM,64.6,62.6,93,29.92,10.0,South,12.7,-,0.00,,Overcast,190,2013-10-31 10:58:00
6:52 AM,64.4,60.8,88,29.90,10.0,South,16.1,23.0,N/A,,Light Drizzle,190,2013-10-31 11:52:00
6:58 AM,63.9,60.3,88,29.90,10.0,SSW,15.0,-,0.00,,Light Drizzle,200,2013-10-31 11:58:00
7:13 AM,62.6,62.6,100,29.89,10.0,South,10.4,20.7,N/A,,Overcast,190,2013-10-31 12:13:00
7:38 AM,62.6,62.6,100,29.86,10.0,South,10.4,-,N/A,,Light Drizzle,180,2013-10-31 12:38:00
7:58 AM,62.6,62.6,100,29.86,10.0,South,13.8,21.9,0.01,,Light Drizzle,170,2013-10-31 12:58:00
8:58 AM,61.9,61.9,100,29.83,10.0,South,12.7,20.7,0.03,,Light Drizzle,170,2013-10-31 13:58:00
9:23 AM,62.6,62.6,100,29.80,10.0,South,16.1,25.3,N/A,,Mostly Cloudy,170,2013-10-31 14:23:00
9:26 AM,62.6,62.6,100,29.79,10.0,SSE,16.1,25.3,N/A,,Mostly Cloudy,160,2013-10-31 14:26:00
9:38 AM,62.6,62.6,100,29.79,10.0,South,15.0,23.0,N/A,,Light Drizzle,170,2013-10-31 14:38:00
9:42 AM,62.6,62.6,100,29.78,10.0,SSE,15.0,25.3,N/A,,Light Drizzle,160,2013-10-31 14:42:00
9:46 AM,62.6,62.6,100,29.79,10.0,South,13.8,25.3,N/A,,Light Drizzle,180,2013-10-31 14:46:00
9:48 AM,62.6,62.6,100,29.79,10.0,South,13.8,25.3,N/A,,Light Drizzle,180,2013-10-31 14:48:00
9:58 AM,62.8,62.8,100,29.79,10.0,South,12.7,23.0,0.02,,Light Drizzle,180,2013-10-31 14:58:00
10:01 AM,62.6,62.6,100,29.78,10.0,South,12.7,21.9,N/A,,Light Drizzle,170,2013-10-31 15:01:00
10:03 AM,62.6,62.6,100,29.79,10.0,South,13.8,21.9,N/A,,Light Drizzle,170,2013-10-31 15:03:00
10:05 AM,62.6,62.6,100,29.78,10.0,South,15.0,21.9,N/A,,Light Drizzle,170,2013-10-31 15:05:00
10:06 AM,62.6,62.6,100,29.78,10.0,SSE,17.3,23.0,N/A,,Overcast,160,2013-10-31 15:06:00
10:28 AM,64.4,64.4,100,29.76,10.0,South,17.3,26.5,N/A,,Mostly Cloudy,180,2013-10-31 15:28:00
10:46 AM,64.4,64.4,100,29.75,10.0,South,17.3,28.8,N/A,,Light Drizzle,180,2013-10-31 15:46:00
10:55 AM,64.4,64.4,100,29.73,10.0,South,21.9,34.5,N/A,,Light Drizzle,180,2013-10-31 15:55:00
10:57 AM,64.4,64.4,100,29.73,10.0,South,23.0,34.5,N/A,,Scattered Clouds,180,2013-10-31 15:57:00
10:58 AM,65.1,65.1,100,29.73,10.0,South,20.7,34.5,0.00,,Scattered Clouds,170,2013-10-31 15:58:00
11:06 AM,66.2,66.2,100,29.73,10.0,South,21.9,31.1,N/A,,Light Drizzle,190,2013-10-31 16:06:00
11:13 AM,66.2,66.2,100,29.73,10.0,South,17.3,31.1,N/A,,Light Drizzle,180,2013-10-31 16:13:00
11:22 AM,64.4,64.4,100,29.72,10.0,South,23.0,31.1,N/A,,Light Drizzle,180,2013-10-31 16:22:00
11:28 AM,66.2,66.2,100,29.72,10.0,South,24.2,40.3,N/A,,Mostly Cloudy,180,2013-10-31 16:28:00
11:58 AM,65.3,65.3,100,29.71,10.0,South,23.0,29.9,0.05,,Overcast,180,2013-10-31 16:58:00
12:58 PM,66.4,66.4,100,29.69,10.0,South,17.3,28.8,0.02,,Overcast,180,2013-10-31 17:58:00
12:59 PM,66.2,66.2,100,29.69,10.0,South,15.0,28.8,N/A,,Light Drizzle,190,2013-10-31 17:59:00
1:13 PM,66.2,66.2,100,29.68,10.0,South,17.3,26.5,N/A,,Light Drizzle,190,2013-10-31 18:13:00
1:14 PM,66.2,66.2,100,29.67,10.0,South,18.4,26.5,N/A,,Overcast,180,2013-10-31 18:14:00
1:18 PM,66.2,66.2,100,29.67,10.0,South,18.4,26.5,N/A,,Light Drizzle,180,2013-10-31 18:18:00
1:58 PM,66.7,66.7,100,29.62,10.0,South,16.1,29.9,0.04,,Light Drizzle,180,2013-10-31 18:58:00
2:58 PM,67.1,67.1,100,29.60,10.0,South,17.3,26.5,0.09,,Drizzle,180,2013-10-31 19:58:00
3:33 PM,68.0,68.0,100,29.58,9.0,South,16.1,24.2,N/A,Rain,Light Rain,190,2013-10-31 20:33:00
3:34 PM,68.0,68.0,100,29.58,8.0,South,15.0,24.2,N/A,Rain,Light Rain,180,2013-10-31 20:34:00
3:55 PM,66.2,66.2,100,29.56,8.0,South,13.8,-,N/A,Rain,Light Rain,170,2013-10-31 20:55:00
3:58 PM,67.1,67.1,100,29.55,8.0,South,11.5,19.6,0.10,Rain,Light Rain,170,2013-10-31 20:58:00
4:00 PM,66.2,66.2,100,29.54,8.0,South,10.4,19.6,N/A,Rain,Light Rain,170,2013-10-31 21:00:00
4:10 PM,66.2,66.2,100,29.55,9.0,South,18.4,19.6,N/A,Rain,Light Rain,190,2013-10-31 21:10:00
4:12 PM,68.0,68.0,100,29.55,9.0,South,16.1,-,N/A,Rain,Light Rain,190,2013-10-31 21:12:00
4:43 PM,68.0,68.0,100,29.55,7.0,SSW,25.3,-,N/A,,Overcast,200,2013-10-31 21:43:00
4:55 PM,68.0,68.0,100,29.53,6.0,South,25.3,36.8,N/A,,Overcast,190,2013-10-31 21:55:00
4:58 PM,67.5,67.5,100,29.53,7.0,South,23.0,36.8,0.04,,Overcast,190,2013-10-31 21:58:00
5:04 PM,68.0,68.0,100,29.54,10.0,South,18.4,36.8,N/A,,Overcast,190,2013-10-31 22:04:00
5:06 PM,68.0,68.0,100,29.54,10.0,South,20.7,35.7,N/A,,Overcast,190,2013-10-31 22:06:00
5:07 PM,68.0,68.0,100,29.54,10.0,South,23.0,35.7,N/A,,Overcast,190,2013-10-31 22:07:00
5:08 PM,68.0,68.0,100,29.54,9.0,South,24.2,35.7,N/A,,Overcast,190,2013-10-31 22:08:00
5:09 PM,68.0,68.0,100,29.54,9.0,South,21.9,35.7,N/A,,Overcast,190,2013-10-31 22:09:00
5:33 PM,68.0,68.0,100,29.53,3.0,South,19.6,27.6,N/A,,Overcast,180,2013-10-31 22:33:00
5:38 PM,68.0,68.0,100,29.54,2.5,South,19.6,27.6,N/A,,Overcast,190,2013-10-31 22:38:00
5:47 PM,68.0,68.0,100,29.54,1.8,SSW,25.3,32.2,N/A,,Overcast,210,2013-10-31 22:47:00
5:49 PM,68.0,68.0,100,29.54,1.2,SSW,26.5,34.5,N/A,,Overcast,210,2013-10-31 22:49:00
5:51 PM,68.0,68.0,100,29.53,1.0,SSW,21.9,34.5,N/A,,Overcast,200,2013-10-31 22:51:00
5:56 PM,68.0,68.0,100,29.54,1.2,SSW,20.7,34.5,N/A,,Overcast,200,2013-10-31 22:56:00
5:58 PM,67.3,67.3,100,29.54,1.2,SSW,19.6,34.5,0.38,,Overcast,200,2013-10-31 22:58:00
5:59 PM,68.0,68.0,100,29.54,1.5,SSW,19.6,34.5,N/A,,Overcast,200,2013-10-31 22:59:00
6:00 PM,68.0,68.0,100,29.54,2.5,SSW,20.7,32.2,N/A,,Overcast,200,2013-10-31 23:00:00
6:01 PM,68.0,68.0,100,29.54,3.0,SSW,20.7,28.8,N/A,,Overcast,200,2013-10-31 23:01:00
6:05 PM,68.0,68.0,100,29.53,6.0,SSW,17.3,28.8,N/A,,Overcast,200,2013-10-31 23:05:00
6:13 PM,68.0,68.0,100,29.53,6.0,SW,17.3,-,N/A,Rain,Rain,220,2013-10-31 23:13:00
6:16 PM,68.0,68.0,100,29.53,5.0,SW,21.9,25.3,N/A,Rain,Rain,220,2013-10-31 23:16:00
6:18 PM,68.0,68.0,100,29.53,5.0,SW,23.0,-,N/A,Rain,Rain,220,2013-10-31 23:18:00
6:30 PM,68.0,68.0,100,29.53,4.0,SW,25.3,32.2,N/A,Rain,Light Rain,220,2013-10-31 23:30:00
6:41 PM,68.0,68.0,100,29.53,5.0,SSW,20.7,31.1,N/A,Rain,Light Rain,210,2013-10-31 23:41:00
6:42 PM,68.0,68.0,100,29.54,6.0,SSW,21.9,31.1,N/A,Rain,Light Rain,210,2013-10-31 23:42:00
6:43 PM,68.0,68.0,100,29.54,7.0,SSW,19.6,-,N/A,,Overcast,210,2013-10-31 23:43:00
6:47 PM,68.0,68.0,100,29.54,9.0,SSW,16.1,-,N/A,,Overcast,210,2013-10-31 23:47:00
6:50 PM,68.0,68.0,100,29.53,10.0,SW,18.4,23.0,N/A,,Overcast,220,2013-10-31 23:50:00
6:55 PM,68.0,68.0,100,29.54,10.0,SW,19.6,26.5,N/A,,Overcast,220,2013-10-31 23:55:00
6:58 PM,67.5,67.5,100,29.54,10.0,SSW,18.4,26.5,0.20,,Overcast,210,2013-10-31 23:58:00
7:01 PM,68.0,68.0,100,29.54,10.0,SSW,18.4,26.5,N/A,,Overcast,210,2013-11-01 00:01:00
7:02 PM,68.0,68.0,100,29.54,10.0,SSW,20.7,26.5,N/A,,Overcast,210,2013-11-01 00:02:00
7:03 PM,68.0,68.0,100,29.54,10.0,SSW,21.9,26.5,N/A,,Mostly Cloudy,210,2013-11-01 00:03:00
7:06 PM,68.0,68.0,100,29.54,10.0,SSW,21.9,26.5,N/A,,Overcast,210,2013-11-01 00:06:00
7:22 PM,68.0,68.0,100,29.54,10.0,SSW,21.9,28.8,N/A,,Overcast,210,2013-11-01 00:22:00
7:58 PM,68.7,68.7,100,29.54,10.0,SW,23.0,34.5,N/A,,Overcast,220,2013-11-01 00:58:00
8:07 PM,68.0,68.0,100,29.54,10.0,SSW,23.0,34.5,N/A,,Overcast,210,2013-11-01 01:07:00
8:08 PM,68.0,68.0,100,29.54,10.0,SSW,20.7,33.4,N/A,,Overcast,210,2013-11-01 01:08:00
8:24 PM,68.0,68.0,100,29.54,10.0,SW,26.5,32.2,N/A,,Overcast,220,2013-11-01 01:24:00
8:37 PM,68.0,68.0,100,29.54,10.0,SW,25.3,34.5,N/A,,Mostly Cloudy,220,2013-11-01 01:37:00
8:38 PM,68.0,68.0,100,29.54,10.0,SW,23.0,34.5,N/A,,Mostly Cloudy,230,2013-11-01 01:38:00
8:45 PM,68.0,68.0,100,29.54,10.0,SW,25.3,32.2,N/A,,Mostly Cloudy,220,2013-11-01 01:45:00
8:51 PM,68.0,68.0,100,29.54,10.0,SW,26.5,33.4,N/A,,Mostly Cloudy,230,2013-11-01 01:51:00
8:58 PM,68.7,68.7,100,29.54,10.0,SW,24.2,33.4,N/A,,Mostly Cloudy,230,2013-11-01 01:58:00
9:32 PM,68.0,66.2,94,29.55,10.0,SW,31.1,41.4,N/A,,Scattered Clouds,230,2013-11-01 02:32:00
9:58 PM,68.4,65.1,89,29.57,10.0,WSW,25.3,38.0,0.01,,Clear,240,2013-11-01 02:58:00
10:31 PM,68.0,64.4,88,29.62,10.0,West,21.9,33.4,N/A,,Partly Cloudy,270,2013-11-01 03:31:00
10:37 PM,66.2,59.0,78,29.64,10.0,West,27.6,38.0,N/A,,Light Drizzle,270,2013-11-01 03:37:00
10:48 PM,60.8,59.0,94,29.65,8.0,West,18.4,36.8,N/A,Rain,Rain,280,2013-11-01 03:48:00
10:58 PM,59.7,59.7,100,29.65,6.0,West,16.1,29.9,0.02,Rain,Rain,270,2013-11-01 03:58:00
11:07 PM,59.0,59.0,100,29.64,9.0,West,10.4,23.0,N/A,Rain,Light Rain,260,2013-11-01 04:07:00
11:16 PM,59.0,59.0,100,29.65,10.0,West,12.7,-,N/A,,Mostly Cloudy,260,2013-11-01 04:16:00
11:58 PM,58.1,58.1,100,29.68,10.0,WSW,12.7,-,0.02,,Clear,240,2013-11-01 04:58:00